TimeEAT,TemperatureF,Dew PointF,Humidity,Sea Level PressureIn,VisibilityMPH,Wind Direction,Wind SpeedMPH,Gust SpeedMPH,PrecipitationIn,Events,Conditions,WindDirDegrees,DateUTC
12:00 AM,64.4,62.6,94,30.18,6.2,NW,3.5,-,N/A,Rain,Light Rain,320,2012-10-13 21:00:00
12:30 AM,62.6,60.8,94,30.15,6.2,North,4.6,-,N/A,Rain,Light Rain,350,2012-10-13 21:30:00
4:00 AM,62.6,62.6,100,30.12,6.2,SSE,4.6,-,N/A,,Mostly Cloudy,150,2012-10-14 01:00:00
5:00 AM,62.6,62.6,100,30.12,6.2,Calm,Calm,-,N/A,,Scattered Clouds,0,2012-10-14 02:00:00
6:00 AM,62.6,60.8,94,30.15,3.7,ENE,6.9,-,N/A,Fog,Patches of Fog,60,2012-10-14 03:00:00
7:00 AM,62.6,60.8,94,30.15,6.2,East,6.9,-,N/A,,Mostly Cloudy,80,2012-10-14 04:00:00
8:00 AM,62.6,60.8,94,30.18,6.2,ENE,9.2,-,N/A,,Mostly Cloudy,70,2012-10-14 05:00:00
9:00 AM,64,61,87,,19,ENE,11.5,,,,Mostly Cloudy,60,2012-10-14 06:00:00
9:00 AM,64.4,60.8,88,30.21,6.2,ENE,11.5,-,N/A,,Mostly Cloudy,60,2012-10-14 06:00:00
10:00 AM,68.0,60.8,78,30.21,6.2,East,4.6,-,N/A,,Mostly Cloudy,80,2012-10-14 07:00:00
11:00 AM,69.8,60.8,73,30.18,6.2,East,6.9,-,N/A,,Mostly Cloudy,100,2012-10-14 08:00:00
12:00 PM,73.4,60.8,65,30.15,6.2,ENE,9.2,-,N/A,,Mostly Cloudy,70,2012-10-14 09:00:00
1:00 PM,73.4,59.0,61,30.12,6.2,ENE,16.1,-,N/A,,Mostly Cloudy,70,2012-10-14 10:00:00
2:00 PM,73.4,59.0,61,30.09,6.2,ENE,13.8,-,N/A,,Mostly Cloudy,70,2012-10-14 11:00:00
3:00 PM,73.4,59.0,61,30.09,6.2,East,16.1,-,N/A,,Mostly Cloudy,90,2012-10-14 12:00:00
4:00 PM,69.8,60.8,73,30.09,6.2,SSE,8.1,-,N/A,,Mostly Cloudy,150,2012-10-14 13:00:00
5:00 PM,73.4,55.4,53,30.06,6.2,South,13.8,-,N/A,,Mostly Cloudy,180,2012-10-14 14:00:00
6:00 PM,71.6,57.2,60,30.09,6.2,ENE,17.3,-,N/A,,Mostly Cloudy,70,2012-10-14 15:00:00
7:00 PM,68.0,57.2,68,30.12,6.2,ENE,13.8,-,N/A,,Mostly Cloudy,70,2012-10-14 16:00:00
8:00 PM,66.2,57.2,73,30.15,6.2,ENE,12.7,-,N/A,,Mostly Cloudy,70,2012-10-14 17:00:00
9:00 PM,66,57,64,,19,ENE,9.2,,,,Partly Cloudy,70,2012-10-14 18:00:00
9:00 PM,66.2,57.2,73,30.18,6.2,ENE,9.2,-,N/A,,Mostly Cloudy,70,2012-10-14 18:00:00
10:00 PM,64.4,59.0,83,30.18,6.2,ENE,11.5,-,N/A,,Mostly Cloudy,60,2012-10-14 19:00:00
11:00 PM,64.4,60.8,88,30.21,6.2,ENE,8.1,-,N/A,,Mostly Cloudy,70,2012-10-14 20:00:00